User: anonymous   Login
Location: Drayton Valley
(53.2170°N, 114.9830°W)
Time: 21:36:23
(UTC-07:00)
Language:

MOZ.5/SAFIR/RUBIN 5/SL-8 - Orbit

View from above orbital plane
View from above orbital plane
View from above satellite
View from above satellite

Ground track
Ground track

The orbit data is extracted from the following two-line orbital elements,

1 28898U 05043G   16043.52746366  .00000297  00000-0  70815-4 0  9993
2 28898  97.8631 210.5507 0018602 292.3279  67.5950 14.60051309548235
Epoch (UTC): 12 February 2016 12:39:32
Eccentricity: 0.0018602
inclination: 97.8631°
perigee height: 680 km
apogee height: 706 km
right ascension of ascending node: 210.5507°
argument of perigee: 292.3279°
revolutions per day: 14.60051309
mean anomaly at epoch: 67.5950°
orbit number at epoch: 54823

The dashed part of the orbit path shows where the satellite is in the earth's shadow,  

DLR